STARLINK-35839, 67169

Orbit data source: Space-Track

STARLINK-35839, 67169 is a payload satellite owned by SpaceX/Seattle (US) in LEO that was launched on Wed, 17 Dec 2025 UTC via an FALCON 9 launch vehicle from the Air Force Eastern Test Range (AFETR). Payload-class satellites include a variety of spacecraft equipped with specific instruments for various scientific and technological missions. These include communications satellites like Starlink; space stations such as the ISS; scientific satellites like the Hubble; Earth observation satellites from companies like Planet Labs, Umbra, and HawkEye 360; GPS; miniature CubeSats for education and research; and military/defense satellites.

Loading next visibility...
Identifier
67169, 2025-303G
Orbit
LEO
Country
Flag of USUS
Related business
Manufacturer
SpaceX/Seattle
Mission
Operational Commercial Communications
Bus & Motor
STARLINK V2MO, Unknown motor
Mass
575 kg wet, ~530 kg dry
Launch date (UTC)
2025-12-17 (6 months ago)
Launch vehicle
FALCON 9
Launch site
Air Force Eastern Test Range (AFETR)
Object type
Payload
Rocket body
Debris
Shape & HBR
Box + 2 Pan, 17.7 m
Radar Cross Section
36.964 m², Large (>1 m²)

Expand to show TLE details & history
Last TLE update: 16 hours ago

TLE from 16 hours ago
0 STARLINK-35839
1 67169U 25303G   26171.17122884  .00015481  00000-0  57054-3 0  9995
2 67169  43.0033  92.3653 0001503 267.5570  92.5110 15.27601310 28401
Epoch: 2026-06-20T04:06Z
TLE epoch observation values (Epoch: 2026-06-20T04:06:34.171Z)
Latitude
-0.00001°
Longitude
122.33323°
Altitude
482.806 km
Speed
7.626 km/s
True Right ascension
06h 09m 27s
True Declination
0° 00' 00"
Sunlit
Object was in daylight at epoch
Visualization orbit readout
Latitude
Unknown
Longitude
Unknown
Altitude
Unknown
Speed
Unknown
Apparent Right ascension
Unknown
Apparent Declination
Unknown
Sunlit
N/A
Visualization observer readout
Local Sidereal Time
07:14:55
Azimuth
Unknown
Elevation
Unknown
Doppler factor
Unknown
Orbital elements
Apogee altitude
485.961 km
Perigee altitude
483.898 km
Semi-major axis
6,863.067 km
Eccentricity
0.00015
Inclination
43.0033°
RAAN
92.3653°
Arg. of periapsis
267.557°
True anomaly
92.52821°
Mean anomaly
92.511°
Eccentric anomaly
92.5196°
Mean motion
3.81738 °/min
Orbital period
94.31 mins
BSTAR
0.00057054
Loading maneuver chart data...
Computing Atmospheric mass density...
Loading historical data...
Loading historical data...
Loading historical data...
Loading historical data...
Loading historical data...
Loading historical data...
Loading historical data...

Documentation

Showing up to 5 results
|